Location: Chèvreville
(49.1099°N, 2.8495°E)
Time: 13:53:37
(UTC+00:00)

BlueWalker 3 - Visible Passes

Search period start: 21 January 2026 00:00
Search period end: 31 January 2026 00:00
Orbit: 451 x 463 km, 53.2° (Epoch: 20 January)

Date Brightness Start Highest point End Pass type
(mag) Time Alt. Az. Time Alt. Az. Time Alt. Az.
21 Jan 3.4 18:57:52 10° SW 18:59:43 27° SSW 18:59:43 27° SSW visible
22 Jan 2.3 18:22:34 10° SW 18:25:56 40° SE 18:25:59 40° SE visible
23 Jan 2.7 17:47:18 10° SSW 17:50:32 33° SE 17:52:09 22° E visible
23 Jan 4.1 19:24:20 10° WSW 19:25:53 24° W 19:25:53 24° W visible
24 Jan 3.1 17:12:05 10° SSW 17:15:07 26° SE 17:18:09 10° E visible
24 Jan 2.0 18:48:48 10° WSW 18:51:58 64° WNW 18:51:58 64° WNW visible
25 Jan 1.6 18:13:15 10° WSW 18:16:50 85° NNW 18:17:58 41° ENE visible
25 Jan 4.9 19:51:10 10° WNW 19:51:42 13° WNW 19:51:42 13° WNW visible
26 Jan 1.7 17:37:43 10° WSW 17:41:17 81° SSE 17:43:54 17° ENE visible
26 Jan 3.6 19:15:33 10° W 19:17:38 29° WNW 19:17:38 29° WNW visible
27 Jan 2.3 18:39:53 10° W 18:43:21 45° N 18:43:31 45° N visible
28 Jan 2.2 18:04:12 10° W 18:07:41 49° NNW 18:09:21 26° NE visible
28 Jan 4.6 19:42:08 10° WNW 19:43:04 17° WNW 19:43:04 17° WNW visible
29 Jan 2.1 17:28:30 10° W 17:32:01 54° NNW 17:35:09 12° ENE visible
29 Jan 3.2 19:06:28 10° WNW 19:08:53 33° NW 19:08:53 33° NW visible
30 Jan 2.4 18:30:45 10° WNW 18:34:10 41° N 18:34:39 38° NNE visible
30 Jan 5.2 20:08:21 10° WNW 20:08:22 10° WNW 20:08:22 10° WNW visible
